Weather History for Plattsburgh, NY

Change the Weather History Date:

Wednesday, December 28, 2011

  Actual Average Record
Temperature  
Mean Temperature 25 °F 20 °F  
Max Temperature 40 °F 30 °F 56 °F (1982)
Min Temperature 9 °F 11 °F -15 °F (1951)
Degree Days  
Heating Degree Days 40 45  
Month to date heating degree days 963 1116  
Since 1 July heating degree days 2267 2750  
Moisture  
Dew Point 21 °F    
Average Humidity 76    
Maximum Humidity 100    
Minimum Humidity 52    
Precipitation  
Precipitation T in - 0.70 in (1968)
Month to date precipitation 1.32  
Year to date precipitation 39.12  
Sea Level Pressure  
Sea Level Pressure 29.37 in    
Wind  
Wind Speed 7 mph (WSW)    
Max Wind Speed 17 mph    
Max Gust Speed 37 mph    
Visibility 8 miles    
Events Rain    
T = Trace of Precipitation, MM = Missing Value Source: NWS Daily Summary

Daily Weather History Graph

Daily Weather History Graph

Search for Another Location

Airport:

Trip Planner

Search our weather history database for the weather conditions in past years. The results will help you decide how hot, cold, wet, or windy it might be!

Date:

Astronomy

Dec. 28, 2011 Rise Set
Actual Time 7:30 AM EST 4:20 PM EST
Civil Twilight 6:56 AM EST 4:54 PM EST
Nautical Twilight 6:19 AM EST 5:31 PM EST
Astronomical Twilight 5:44 AM EST 6:06 PM EST
Moon 9:44 AM EST (12/28) 9:05 PM EST (12/28)
Length of Visible Light 9h 57m
Length of Day
8h 50m
Waxing Crescent, 18% of the Moon is Illuminated
Dec 28
Waxing Crescent
Jan 1
First Quarter
Jan 9
Full
Jan 16
Last Quarter
Jan 23
New

Hourly Weather History & Observations

Time (EST) Temp. Windchill Dew Point Humidity Pressure Visibility Wind Dir Wind Speed Gust Speed Precip Events Conditions
12:19 AM 35.6 °F 31.7 °F 33.8 °F 93% 29.17 in 2.0 mi WSW 4.6 mph - N/A   Overcast
12:44 AM 33.8 °F 29.6 °F 33.8 °F 100% 29.16 in 3.0 mi West 4.6 mph - 0.00 in Rain Light Rain
12:53 AM 35.1 °F 32.2 °F 34.0 °F 96% 29.18 in 3.0 mi Variable 3.5 mph - 0.00 in   Overcast
1:19 AM 33.8 °F - 33.8 °F 100% 29.17 in 1.8 mi Calm Calm - N/A   Overcast
1:33 AM 33.8 °F - 33.8 °F 100% 29.17 in 1.0 mi Calm Calm - N/A   Overcast
1:53 AM 33.1 °F 30.0 °F 33.1 °F 100% 29.17 in 0.8 mi SSE 3.5 mph - N/A   Overcast
2:06 AM 33.8 °F 29.6 °F 33.8 °F 100% 29.17 in 2.0 mi Variable 4.6 mph - N/A   Overcast
2:14 AM 35.6 °F 31.7 °F 33.8 °F 93% 29.18 in 8.0 mi SW 4.6 mph - N/A   Overcast
3:53 AM 39.0 °F - 36.0 °F 89% 29.21 in 10.0 mi Calm Calm - N/A   Overcast
4:53 AM 39.9 °F 36.7 °F 33.1 °F 77% 29.21 in 10.0 mi SSW 4.6 mph - N/A   Overcast
5:53 AM 39.9 °F 34.5 °F 32.0 °F 73% 29.22 in 10.0 mi SSW 8.1 mph - N/A   Mostly Cloudy
6:53 AM 39.0 °F 35.7 °F 30.9 °F 73% 29.24 in 10.0 mi SW 4.6 mph - N/A   Mostly Cloudy
7:28 AM 39.2 °F 35.9 °F 30.2 °F 70% 29.25 in 10.0 mi Variable 4.6 mph - N/A   Overcast
7:43 AM 37.4 °F 30.8 °F 28.4 °F 70% 29.27 in 10.0 mi WSW 9.2 mph 16.1 mph N/A   Mostly Cloudy
7:53 AM 37.9 °F 33.5 °F 28.9 °F 70% 29.28 in 10.0 mi Variable 5.8 mph - N/A   Mostly Cloudy
8:53 AM 37.0 °F 34.5 °F 28.0 °F 70% 29.31 in 10.0 mi Variable 3.5 mph - N/A   Overcast
9:53 AM 36.0 °F 30.3 °F 26.1 °F 67% 29.33 in 10.0 mi Variable 6.9 mph 16.1 mph N/A   Scattered Clouds
10:53 AM 30.9 °F 22.8 °F 21.0 °F 67% 29.35 in 10.0 mi WNW 9.2 mph 21.9 mph N/A   Overcast
11:53 AM 27.0 °F 18.0 °F 15.1 °F 61% 29.39 in 10.0 mi WNW 9.2 mph 23.0 mph 0.00 in   Overcast
12:53 PM 24.1 °F 15.2 °F 10.0 °F 55% 29.42 in 10.0 mi WNW 8.1 mph 21.9 mph N/A   Overcast
1:53 PM 21.9 °F 11.0 °F 6.1 °F 51% 29.46 in 10.0 mi West 10.4 mph 29.9 mph N/A   Overcast
2:53 PM 19.9 °F 13.4 °F 6.1 °F 55% 29.51 in 10.0 mi Variable 4.6 mph 17.3 mph N/A   Overcast
3:53 PM 18.0 °F 7.7 °F 3.0 °F 52% 29.55 in 10.0 mi WSW 8.1 mph 27.6 mph N/A   Overcast
4:53 PM 17.1 °F 7.6 °F 3.9 °F 56% 29.59 in 10.0 mi Variable 6.9 mph 19.6 mph N/A   Overcast
5:53 PM 17.1 °F 5.8 °F 5.0 °F 59% 29.62 in 10.0 mi WSW 9.2 mph 23.0 mph 0.00 in   Overcast
6:53 PM 17.1 °F 2.5 °F 3.9 °F 56% 29.65 in 10.0 mi WNW 15.0 mph 24.2 mph 0.00 in   Overcast
7:53 PM 16.0 °F 4.4 °F 3.0 °F 57% 29.69 in 10.0 mi West 9.2 mph - N/A   Overcast
8:53 PM 14.0 °F 1.2 °F 1.0 °F 56% 29.71 in 10.0 mi WSW 10.4 mph 19.6 mph N/A   Overcast
9:53 PM 12.0 °F 2.7 °F -0.9 °F 56% 29.74 in 10.0 mi Variable 5.8 mph 16.1 mph N/A   Clear
11:53 PM 9.0 °F -0.9 °F -2.9 °F 59% 29.78 in 10.0 mi South 5.8 mph - N/A   Clear